STARLINK-38050, 69981

Orbit data source: Space-Track

STARLINK-38050, 69981 is a payload satellite owned by SpaceX/Seattle (US) in SSO that was launched on Sat, 11 Jul 2026 UTC via an FALCON 9 launch vehicle from the Air Force Western Test Range (AFWTR). Payload-class satellites include a variety of spacecraft equipped with specific instruments for various scientific and technological missions. These include communications satellites like Starlink; space stations such as the ISS; scientific satellites like the Hubble; Earth observation satellites from companies like Planet Labs, Umbra, and HawkEye 360; GPS; miniature CubeSats for education and research; and military/defense satellites.

Loading next visibility...
Identifier
69981, 2026-159G
Orbit
SSO
Country
Flag of USUS
Related business
Manufacturer
SpaceX/Seattle
Mission
Operational spacecraft
Bus & Motor
STARLINK V2MO, Unknown motor
Mass
575 kg wet, ~530 kg dry
Launch date (UTC)
2026-07-11 (1 month ago)
Launch vehicle
FALCON 9
Launch site
Air Force Western Test Range (AFWTR)
Object type
Payload
Rocket body
Debris
Shape & HBR
BOX + PAN, 17.7 m
Radar Cross Section
Large (>1 m²)

Expand to show TLE details & history
Last TLE update: 14 hours ago

TLE from 14 hours ago
0 STARLINK-38050
1 69981U 26159G   26228.50370895  .00213403  00000-0  13913-2 0  9995
2 69981  97.2843  68.8333 0001281  99.9953 260.1457 15.75270962  6954
Epoch: 2026-08-16T12:05Z
TLE epoch observation values (Epoch: 2026-08-16T12:05:20.453Z)
Latitude
Longitude
-77.40121°
Altitude
347.176 km
Speed
7.7 km/s
True Right ascension
04h 35m 19s
True Declination
0° 00' 00"
Sunlit
Object was in daylight at epoch
Visualization orbit readout
Latitude
Unknown
Longitude
Unknown
Altitude
Unknown
Speed
Unknown
Apparent Right ascension
Unknown
Apparent Declination
Unknown
Sunlit
N/A
Visualization observer readout
Local Sidereal Time
16:52:45
Azimuth
Unknown
Elevation
Unknown
Doppler factor
Unknown
Orbital elements
Apogee altitude
341.608 km
Perigee altitude
339.887 km
Semi-major axis
6,718.885 km
Eccentricity
0.00013
Inclination
97.2843°
RAAN
68.8333°
Arg. of periapsis
99.9953°
True anomaly
260.13124°
Mean anomaly
260.1457°
Eccentric anomaly
260.13847°
Mean motion
3.94092 °/min
Orbital period
91.35 mins
BSTAR
0.0013913
Loading maneuver chart data...
Computing Atmospheric mass density...
Loading historical data...
Loading historical data...
Loading historical data...
Loading historical data...
Loading historical data...
Loading historical data...
Loading historical data...

Documentation

Showing up to 5 results
|